TimeCDT,TemperatureF,Dew PointF,Humidity,Sea Level PressureIn,VisibilityMPH,Wind Direction,Wind SpeedMPH,Gust SpeedMPH,PrecipitationIn,Events,Conditions,WindDirDegrees,DateUTC
12:53 AM,69.1,60.1,73,29.94,10.0,NNW,5.8,-,N/A,,Clear,340,2013-09-02 05:53:00
1:53 AM,66.9,59.0,76,29.95,10.0,NNW,4.6,-,N/A,,Clear,330,2013-09-02 06:53:00
2:53 AM,66.9,59.0,76,29.96,10.0,North,5.8,-,N/A,,Clear,350,2013-09-02 07:53:00
3:53 AM,66.0,59.0,78,29.96,10.0,North,6.9,-,N/A,,Clear,360,2013-09-02 08:53:00
4:53 AM,64.9,57.9,78,29.97,10.0,NNE,4.6,-,N/A,,Clear,20,2013-09-02 09:53:00
5:53 AM,63.0,57.9,84,29.99,10.0,North,4.6,-,N/A,,Clear,10,2013-09-02 10:53:00
6:53 AM,63.0,57.9,84,30.01,10.0,Calm,Calm,-,N/A,,Clear,0,2013-09-02 11:53:00
7:53 AM,64.9,60.1,84,30.03,10.0,North,3.5,-,N/A,,Clear,10,2013-09-02 12:53:00
8:53 AM,69.1,59.0,70,30.04,10.0,North,6.9,-,N/A,,Clear,10,2013-09-02 13:53:00
9:53 AM,72.0,59.0,64,30.04,10.0,NNE,6.9,-,N/A,,Clear,30,2013-09-02 14:53:00
10:53 AM,73.9,59.0,59,30.05,10.0,North,8.1,-,N/A,,Clear,10,2013-09-02 15:53:00
11:53 AM,77.0,59.0,54,30.04,10.0,NNE,10.4,-,N/A,,Clear,30,2013-09-02 16:53:00
12:53 PM,79.0,59.0,50,30.04,10.0,NNE,4.6,-,N/A,,Clear,20,2013-09-02 17:53:00
1:53 PM,81.0,57.9,45,30.02,10.0,Variable,5.8,-,N/A,,Clear,0,2013-09-02 18:53:00
2:53 PM,82.9,57.9,42,30.01,10.0,North,6.9,-,N/A,,Clear,10,2013-09-02 19:53:00
3:53 PM,82.0,57.0,42,29.99,10.0,NE,6.9,-,N/A,,Clear,40,2013-09-02 20:53:00
4:53 PM,82.9,57.0,41,29.98,10.0,North,11.5,-,N/A,,Clear,360,2013-09-02 21:53:00
5:53 PM,81.0,57.0,44,29.98,10.0,NNW,5.8,-,N/A,,Clear,330,2013-09-02 22:53:00
6:53 PM,79.0,57.9,48,29.98,10.0,NNW,6.9,-,N/A,,Clear,340,2013-09-02 23:53:00
7:53 PM,73.9,57.9,57,29.99,10.0,NNW,4.6,-,N/A,,Clear,340,2013-09-03 00:53:00
8:53 PM,72.0,57.0,59,29.99,10.0,NNW,6.9,-,N/A,,Clear,330,2013-09-03 01:53:00
9:53 PM,69.1,57.0,65,30.01,10.0,NNW,5.8,-,N/A,,Clear,340,2013-09-03 02:53:00
10:53 PM,68.0,57.9,70,30.02,10.0,NW,4.6,-,N/A,,Clear,320,2013-09-03 03:53:00
11:53 PM,64.9,57.0,75,30.02,10.0,Calm,Calm,-,N/A,,Clear,0,2013-09-03 04:53:00